Year,Month,Day,Hour,Minute,Value (Times are PST for temperature in C)
2018,06,14,00,00,10.30
2018,06,14,00,01,10.30
2018,06,14,00,02,10.30
2018,06,14,00,03,10.30
2018,06,14,00,04,10.30
2018,06,14,00,05,10.30
2018,06,14,00,06,10.30
2018,06,14,00,07,10.30
2018,06,14,00,08,10.30
2018,06,14,00,09,10.30
2018,06,14,00,10,10.30
2018,06,14,00,11,10.30
2018,06,14,00,12,10.30
2018,06,14,00,13,10.30
2018,06,14,00,14,10.30
2018,06,14,00,15,10.30
2018,06,14,00,16,10.30
2018,06,14,00,17,10.30
2018,06,14,00,18,10.20
2018,06,14,00,19,10.20
2018,06,14,00,20,10.20
2018,06,14,00,21,10.20
2018,06,14,00,22,10.20
2018,06,14,00,23,10.10
2018,06,14,00,24,10.10
2018,06,14,00,25,10.10
2018,06,14,00,26,10.10
2018,06,14,00,27,10.10
2018,06,14,00,28,10.00
2018,06,14,00,29,10.00
2018,06,14,00,30,10.00
2018,06,14,00,31,9.90
2018,06,14,00,32,9.90
2018,06,14,00,33,9.90
2018,06,14,00,34,9.90
2018,06,14,00,35,9.90
2018,06,14,00,36,9.80
2018,06,14,00,37,9.80
2018,06,14,00,38,9.80
2018,06,14,00,39,9.80
2018,06,14,00,40,9.70
2018,06,14,00,41,9.70
2018,06,14,00,42,9.70
2018,06,14,00,43,9.70
2018,06,14,00,44,9.70
2018,06,14,00,45,9.60
2018,06,14,00,46,9.60
2018,06,14,00,47,9.60
2018,06,14,00,48,9.60
2018,06,14,00,49,9.60
2018,06,14,00,50,9.50
2018,06,14,00,51,9.60
2018,06,14,00,52,9.50
2018,06,14,00,53,9.50
2018,06,14,00,54,9.50
2018,06,14,00,55,9.50
2018,06,14,00,56,9.50
2018,06,14,00,57,9.50
2018,06,14,00,58,9.50
2018,06,14,00,59,9.50
2018,06,14,01,00,9.50
2018,06,14,01,01,9.50
2018,06,14,01,02,9.40
2018,06,14,01,03,9.40
2018,06,14,01,04,9.40
2018,06,14,01,05,9.40
2018,06,14,01,06,9.40
2018,06,14,01,07,9.40
2018,06,14,01,08,9.40
2018,06,14,01,09,9.40
2018,06,14,01,10,9.40
2018,06,14,01,11,9.30
2018,06,14,01,12,9.30
2018,06,14,01,13,9.30
2018,06,14,01,14,9.30
2018,06,14,01,15,9.30
2018,06,14,01,16,9.30
2018,06,14,01,17,9.30
2018,06,14,01,18,9.30
2018,06,14,01,19,9.30
2018,06,14,01,20,9.30
2018,06,14,01,21,9.30
2018,06,14,01,22,9.30
2018,06,14,01,23,9.30
2018,06,14,01,24,9.30
2018,06,14,01,25,9.40
2018,06,14,01,26,9.40
2018,06,14,01,27,9.40
2018,06,14,01,28,9.40
2018,06,14,01,29,9.40
2018,06,14,01,30,9.40
2018,06,14,01,31,9.40
2018,06,14,01,32,9.40
2018,06,14,01,33,9.40
2018,06,14,01,34,9.40
2018,06,14,01,35,9.40
2018,06,14,01,36,9.40
2018,06,14,01,37,9.40
2018,06,14,01,38,9.40
2018,06,14,01,39,9.50
2018,06,14,01,40,9.50
2018,06,14,01,41,9.50
2018,06,14,01,42,9.50
2018,06,14,01,43,9.50
2018,06,14,01,44,9.50
2018,06,14,01,45,9.50
2018,06,14,01,46,9.50
2018,06,14,01,47,9.50
2018,06,14,01,48,9.50
2018,06,14,01,49,9.60
2018,06,14,01,50,9.50
2018,06,14,01,51,9.50
2018,06,14,01,52,9.50
2018,06,14,01,53,9.50
2018,06,14,01,54,9.50
2018,06,14,01,55,9.50
2018,06,14,01,56,9.50
2018,06,14,01,57,9.60
2018,06,14,01,58,9.60
2018,06,14,01,59,9.60
2018,06,14,02,00,9.60
2018,06,14,02,01,9.50
2018,06,14,02,02,9.50
2018,06,14,02,03,9.50
2018,06,14,02,04,9.50
2018,06,14,02,05,9.50
2018,06,14,02,06,9.40
2018,06,14,02,07,9.40
2018,06,14,02,08,9.40
2018,06,14,02,09,9.40
2018,06,14,02,10,9.40
2018,06,14,02,11,9.40
2018,06,14,02,12,9.30
2018,06,14,02,13,9.30
2018,06,14,02,14,9.30
2018,06,14,02,15,9.30
2018,06,14,02,16,9.30
2018,06,14,02,17,9.30
2018,06,14,02,18,9.30
2018,06,14,02,19,9.30
2018,06,14,02,20,9.30
2018,06,14,02,21,9.30
2018,06,14,02,22,9.30
2018,06,14,02,23,9.30
2018,06,14,02,24,9.30
2018,06,14,02,25,9.30
2018,06,14,02,26,9.30
2018,06,14,02,27,9.30
2018,06,14,02,28,9.30
2018,06,14,02,29,9.30
2018,06,14,02,30,9.30
2018,06,14,02,31,9.30
2018,06,14,02,32,9.20
2018,06,14,02,33,9.20
2018,06,14,02,34,9.20
2018,06,14,02,35,9.20
2018,06,14,02,36,9.20
2018,06,14,02,37,9.30
2018,06,14,02,38,9.30
2018,06,14,02,39,9.30
2018,06,14,02,40,9.30
2018,06,14,02,41,9.30
2018,06,14,02,42,9.30
2018,06,14,02,43,9.30
2018,06,14,02,44,9.30
2018,06,14,02,45,9.30
2018,06,14,02,46,9.40
2018,06,14,02,47,9.40
2018,06,14,02,48,9.40
2018,06,14,02,49,9.40
2018,06,14,02,50,9.40
2018,06,14,02,51,9.40
2018,06,14,02,52,9.50
2018,06,14,02,53,9.50
2018,06,14,02,54,9.50
2018,06,14,02,55,9.60
2018,06,14,02,56,9.60
2018,06,14,02,57,9.60
2018,06,14,02,58,9.60
2018,06,14,02,59,9.60
2018,06,14,03,00,9.70
2018,06,14,03,01,9.70
2018,06,14,03,02,9.70
2018,06,14,03,03,9.70
2018,06,14,03,04,9.70
2018,06,14,03,05,9.70
2018,06,14,03,06,9.70
2018,06,14,03,07,9.70
2018,06,14,03,08,9.70
2018,06,14,03,09,9.70
2018,06,14,03,10,9.80
2018,06,14,03,11,9.80
2018,06,14,03,12,9.80
2018,06,14,03,13,9.80
2018,06,14,03,14,9.80
2018,06,14,03,15,9.80
2018,06,14,03,16,9.80
2018,06,14,03,17,9.80
2018,06,14,03,18,9.80
2018,06,14,03,19,9.80
2018,06,14,03,20,9.80
2018,06,14,03,21,9.80
2018,06,14,03,22,9.80
2018,06,14,03,23,9.80
2018,06,14,03,24,9.80
2018,06,14,03,25,9.80
2018,06,14,03,26,9.90
2018,06,14,03,27,9.90
2018,06,14,03,28,9.90
2018,06,14,03,29,9.90
2018,06,14,03,30,9.90
2018,06,14,03,31,9.90
2018,06,14,03,32,9.90
2018,06,14,03,33,9.90
2018,06,14,03,34,9.90
2018,06,14,03,35,9.90
2018,06,14,03,36,9.90
2018,06,14,03,37,9.90
2018,06,14,03,38,9.90
2018,06,14,03,39,9.90
2018,06,14,03,40,9.90
2018,06,14,03,41,9.90
2018,06,14,03,42,9.90
2018,06,14,03,43,9.90
2018,06,14,03,44,9.90
2018,06,14,03,45,9.90
2018,06,14,03,46,9.90
2018,06,14,03,47,9.90
2018,06,14,03,48,10.00
2018,06,14,03,49,10.00
2018,06,14,03,50,10.00
2018,06,14,03,51,10.00
2018,06,14,03,52,10.00
2018,06,14,03,53,10.00
2018,06,14,03,54,10.00
2018,06,14,03,55,10.00
2018,06,14,03,56,10.00
2018,06,14,03,57,10.00
2018,06,14,03,58,10.00
2018,06,14,03,59,10.00
2018,06,14,04,00,10.00
2018,06,14,04,01,10.00
2018,06,14,04,02,10.00
2018,06,14,04,03,10.00
2018,06,14,04,04,10.00
2018,06,14,04,05,10.00
2018,06,14,04,06,10.00
2018,06,14,04,07,10.00
2018,06,14,04,08,10.00
2018,06,14,04,09,10.00
2018,06,14,04,10,10.10
2018,06,14,04,11,10.10
2018,06,14,04,12,10.10
2018,06,14,04,13,10.10
2018,06,14,04,14,10.10
2018,06,14,04,15,10.10
2018,06,14,04,16,10.10
2018,06,14,04,17,10.10
2018,06,14,04,18,10.10
2018,06,14,04,19,10.10
2018,06,14,04,20,10.10
2018,06,14,04,21,10.10
2018,06,14,04,22,10.10
2018,06,14,04,23,10.10
2018,06,14,04,24,10.10
2018,06,14,04,25,10.10
2018,06,14,04,26,10.10
2018,06,14,04,27,10.20
2018,06,14,04,28,10.20
2018,06,14,04,29,10.20
2018,06,14,04,30,10.20
2018,06,14,04,31,10.20
2018,06,14,04,32,10.30
2018,06,14,04,33,10.30
2018,06,14,04,34,10.30
2018,06,14,04,35,10.30
2018,06,14,04,36,10.30
2018,06,14,04,37,10.30
2018,06,14,04,38,10.30
2018,06,14,04,39,10.30
2018,06,14,04,40,10.30
2018,06,14,04,41,10.30
2018,06,14,04,42,10.30
2018,06,14,04,43,10.30
2018,06,14,04,44,10.30
2018,06,14,04,45,10.30
2018,06,14,04,46,10.30
2018,06,14,04,47,10.30
2018,06,14,04,48,10.30
2018,06,14,04,49,10.30
2018,06,14,04,50,10.30
2018,06,14,04,51,10.30
2018,06,14,04,52,10.30
2018,06,14,04,53,10.30
2018,06,14,04,54,10.30
2018,06,14,04,55,10.30
2018,06,14,04,56,10.30
2018,06,14,04,57,10.30
2018,06,14,04,58,10.30
2018,06,14,04,59,10.30
2018,06,14,05,00,10.30
2018,06,14,05,01,10.30
2018,06,14,05,02,10.30
2018,06,14,05,03,10.30
2018,06,14,05,04,10.30
2018,06,14,05,05,10.30
2018,06,14,05,06,10.30
2018,06,14,05,07,10.30
2018,06,14,05,08,10.30
2018,06,14,05,09,10.30
2018,06,14,05,10,10.30
2018,06,14,05,11,10.30
2018,06,14,05,12,10.30
2018,06,14,05,13,10.30
2018,06,14,05,14,10.30
2018,06,14,05,15,10.30
2018,06,14,05,16,10.30
2018,06,14,05,17,10.30
2018,06,14,05,18,10.30
2018,06,14,05,19,10.30
2018,06,14,05,20,10.30
2018,06,14,05,21,10.30
2018,06,14,05,22,10.30
2018,06,14,05,23,10.30
2018,06,14,05,24,10.30
2018,06,14,05,25,10.30
2018,06,14,05,26,10.30
2018,06,14,05,27,10.30
2018,06,14,05,28,10.30
2018,06,14,05,29,10.30
2018,06,14,05,30,10.30
2018,06,14,05,31,10.30
2018,06,14,05,32,10.30
2018,06,14,05,33,10.30
2018,06,14,05,34,10.30
2018,06,14,05,35,10.30
2018,06,14,05,36,10.30
2018,06,14,05,37,10.30
2018,06,14,05,38,10.30
2018,06,14,05,39,10.30
2018,06,14,05,40,10.30
2018,06,14,05,41,10.30
2018,06,14,05,42,10.30
2018,06,14,05,43,10.30
2018,06,14,05,44,10.30
2018,06,14,05,45,10.30
2018,06,14,05,46,10.30
2018,06,14,05,47,10.30
2018,06,14,05,48,10.30
2018,06,14,05,49,10.40
2018,06,14,05,50,10.40
2018,06,14,05,51,10.40
2018,06,14,05,52,10.40
2018,06,14,05,53,10.40
2018,06,14,05,54,10.40
2018,06,14,05,55,10.40
2018,06,14,05,56,10.40
2018,06,14,05,57,10.40
2018,06,14,05,58,10.40
2018,06,14,05,59,10.40
2018,06,14,06,00,10.40
2018,06,14,06,01,10.40
2018,06,14,06,02,10.40
2018,06,14,06,03,10.50
2018,06,14,06,04,10.50
2018,06,14,06,05,10.50
2018,06,14,06,06,10.50
2018,06,14,06,07,10.50
2018,06,14,06,08,10.60
2018,06,14,06,09,10.60
2018,06,14,06,10,10.60
2018,06,14,06,11,10.60
2018,06,14,06,12,10.60
2018,06,14,06,13,10.60
2018,06,14,06,14,10.70
2018,06,14,06,15,10.70
2018,06,14,06,16,10.70
2018,06,14,06,17,10.70
2018,06,14,06,18,10.70
2018,06,14,06,19,10.70
2018,06,14,06,20,10.70
2018,06,14,06,21,10.80
2018,06,14,06,22,10.80
2018,06,14,06,23,10.80
2018,06,14,06,24,10.80
2018,06,14,06,25,10.80
2018,06,14,06,26,10.90
2018,06,14,06,27,10.90
2018,06,14,06,28,10.90
2018,06,14,06,29,10.90
2018,06,14,06,30,10.90
2018,06,14,06,31,11.00
2018,06,14,06,32,11.00
2018,06,14,06,33,11.00
2018,06,14,06,34,11.00
2018,06,14,06,35,11.10
2018,06,14,06,36,11.10
2018,06,14,06,37,11.10
2018,06,14,06,38,11.10
2018,06,14,06,39,11.10
2018,06,14,06,40,11.10
2018,06,14,06,41,11.20
2018,06,14,06,42,11.20
2018,06,14,06,43,11.20
2018,06,14,06,44,11.20
2018,06,14,06,45,11.20
2018,06,14,06,46,11.30
2018,06,14,06,47,11.30
2018,06,14,06,48,11.30
2018,06,14,06,49,11.30
2018,06,14,06,50,11.40
2018,06,14,06,51,11.40
2018,06,14,06,52,11.40
2018,06,14,06,53,11.40
2018,06,14,06,54,11.40
2018,06,14,06,55,11.50
2018,06,14,06,56,11.50
2018,06,14,06,57,11.60
2018,06,14,06,58,11.60
2018,06,14,06,59,11.60
2018,06,14,07,00,11.60
2018,06,14,07,01,11.70
2018,06,14,07,02,11.70
2018,06,14,07,03,11.70
2018,06,14,07,04,11.70
2018,06,14,07,05,11.70
2018,06,14,07,06,11.80
2018,06,14,07,07,11.80
2018,06,14,07,08,11.80
2018,06,14,07,09,11.90
2018,06,14,07,10,11.90
2018,06,14,07,11,11.90
2018,06,14,07,12,11.90
2018,06,14,07,13,12.00
2018,06,14,07,14,12.00
2018,06,14,07,15,12.00
2018,06,14,07,16,12.10
2018,06,14,07,17,12.10
2018,06,14,07,18,12.10
2018,06,14,07,19,12.20
2018,06,14,07,20,12.20
2018,06,14,07,21,12.20
2018,06,14,07,22,12.30
2018,06,14,07,23,12.30
2018,06,14,07,24,12.30
2018,06,14,07,25,12.30
2018,06,14,07,26,12.40
2018,06,14,07,27,12.40
2018,06,14,07,28,12.40
2018,06,14,07,29,12.50
2018,06,14,07,30,12.50
2018,06,14,07,31,12.60
2018,06,14,07,32,12.60
2018,06,14,07,33,12.60
2018,06,14,07,34,12.60
2018,06,14,07,35,12.70
2018,06,14,07,36,12.70
2018,06,14,07,37,12.70
2018,06,14,07,38,12.80
2018,06,14,07,39,12.80
2018,06,14,07,40,12.80
2018,06,14,07,41,12.80
2018,06,14,07,42,12.90
2018,06,14,07,43,12.90
2018,06,14,07,44,12.90
2018,06,14,07,45,13.00
2018,06,14,07,46,13.00
2018,06,14,07,47,13.00
2018,06,14,07,48,13.10
2018,06,14,07,49,13.10
2018,06,14,07,50,13.10
2018,06,14,07,51,13.20
2018,06,14,07,52,13.20
2018,06,14,07,53,13.20
2018,06,14,07,54,13.20
2018,06,14,07,55,13.30
2018,06,14,07,56,13.30
2018,06,14,07,57,13.30
2018,06,14,07,58,13.40
2018,06,14,07,59,13.40
2018,06,14,08,00,13.40
2018,06,14,08,01,13.40
2018,06,14,08,02,13.50
2018,06,14,08,03,13.50
2018,06,14,08,04,13.50
2018,06,14,08,05,13.50
2018,06,14,08,06,13.60
2018,06,14,08,07,13.60
2018,06,14,08,08,13.60
2018,06,14,08,09,13.60
2018,06,14,08,10,13.60
2018,06,14,08,11,13.60
2018,06,14,08,12,13.70
2018,06,14,08,13,13.70
2018,06,14,08,14,13.70
2018,06,14,08,15,13.70
2018,06,14,08,16,13.80
2018,06,14,08,17,13.80
2018,06,14,08,18,13.80
2018,06,14,08,19,13.90
2018,06,14,08,20,13.90
2018,06,14,08,21,13.90
2018,06,14,08,22,13.90
2018,06,14,08,23,14.00
2018,06,14,08,24,14.00
2018,06,14,08,25,14.10
2018,06,14,08,26,14.10
2018,06,14,08,27,14.10
2018,06,14,08,28,14.20
2018,06,14,08,29,14.20
2018,06,14,08,30,14.20
2018,06,14,08,31,14.20
2018,06,14,08,32,14.30
2018,06,14,08,33,14.30
2018,06,14,08,34,14.30
2018,06,14,08,35,14.30
2018,06,14,08,36,14.40
2018,06,14,08,37,14.40
2018,06,14,08,38,14.40
2018,06,14,08,39,14.50
2018,06,14,08,40,14.60
2018,06,14,08,41,14.60
2018,06,14,08,42,14.60
2018,06,14,08,43,14.70
2018,06,14,08,44,14.70
2018,06,14,08,45,14.70
2018,06,14,08,46,14.80
2018,06,14,08,47,14.80
2018,06,14,08,48,14.80
2018,06,14,08,49,14.80
2018,06,14,08,50,14.80
2018,06,14,08,51,14.80
2018,06,14,08,52,14.80
2018,06,14,08,53,14.80
2018,06,14,08,54,14.80
2018,06,14,08,55,14.80
2018,06,14,08,56,14.80
2018,06,14,08,57,14.80
2018,06,14,08,58,14.80
2018,06,14,08,59,14.80
2018,06,14,09,00,14.90
2018,06,14,09,01,14.90
2018,06,14,09,02,14.90
2018,06,14,09,03,14.90
2018,06,14,09,04,15.00
2018,06,14,09,05,15.00
2018,06,14,09,06,15.10
2018,06,14,09,07,15.10
2018,06,14,09,08,15.10
2018,06,14,09,09,15.20
2018,06,14,09,10,15.20
2018,06,14,09,11,15.20
2018,06,14,09,12,15.20
2018,06,14,09,13,15.20
2018,06,14,09,14,15.20
2018,06,14,09,15,15.20
2018,06,14,09,16,15.20
2018,06,14,09,17,15.20
2018,06,14,09,18,15.20
2018,06,14,09,19,15.20
2018,06,14,09,20,15.20
2018,06,14,09,21,15.30
2018,06,14,09,22,15.30
2018,06,14,09,23,15.30
2018,06,14,09,24,15.30
2018,06,14,09,25,15.30
2018,06,14,09,26,15.40
2018,06,14,09,27,15.40
2018,06,14,09,28,15.40
2018,06,14,09,29,15.50
2018,06,14,09,30,15.60
2018,06,14,09,31,15.60
2018,06,14,09,32,15.60
2018,06,14,09,33,15.60
2018,06,14,09,34,15.70
2018,06,14,09,35,15.70
2018,06,14,09,36,15.70
2018,06,14,09,37,15.80
2018,06,14,09,38,15.80
2018,06,14,09,39,15.80
2018,06,14,09,40,15.90
2018,06,14,09,41,15.90
2018,06,14,09,42,16.00
2018,06,14,09,43,16.00
2018,06,14,09,44,16.10
2018,06,14,09,45,16.10
2018,06,14,09,46,16.20
2018,06,14,09,47,16.20
2018,06,14,09,48,16.20
2018,06,14,09,49,16.30
2018,06,14,09,50,16.30
2018,06,14,09,51,16.30
2018,06,14,09,52,16.30
2018,06,14,09,53,16.30
2018,06,14,09,54,16.40
2018,06,14,09,55,16.40
2018,06,14,09,56,16.50
2018,06,14,09,57,16.50
2018,06,14,09,58,16.60
2018,06,14,09,59,16.60
2018,06,14,10,00,16.70
2018,06,14,10,01,16.70
2018,06,14,10,02,16.80
2018,06,14,10,03,16.90
2018,06,14,10,04,16.90
2018,06,14,10,05,17.00
2018,06,14,10,06,17.00
2018,06,14,10,07,17.10
2018,06,14,10,08,17.10
2018,06,14,10,09,17.10
2018,06,14,10,10,17.20
2018,06,14,10,11,17.20
2018,06,14,10,12,17.20
2018,06,14,10,13,17.30
2018,06,14,10,14,17.30
2018,06,14,10,15,17.40
2018,06,14,10,16,17.40
2018,06,14,10,17,17.50
2018,06,14,10,18,17.50
2018,06,14,10,19,17.50
2018,06,14,10,20,17.60
2018,06,14,10,21,17.60
2018,06,14,10,22,17.60
2018,06,14,10,23,17.70
2018,06,14,10,24,17.70
2018,06,14,10,25,17.70
2018,06,14,10,26,17.70
2018,06,14,10,27,17.70
2018,06,14,10,28,17.70
2018,06,14,10,29,17.70
2018,06,14,10,30,17.70
2018,06,14,10,31,17.70
2018,06,14,10,32,17.70
2018,06,14,10,33,17.80
2018,06,14,10,34,17.80
2018,06,14,10,35,17.90
2018,06,14,10,36,17.90
2018,06,14,10,37,18.00
2018,06,14,10,38,18.00
2018,06,14,10,39,18.00
2018,06,14,10,40,18.00
2018,06,14,10,41,18.00
2018,06,14,10,42,18.00
2018,06,14,10,43,18.00
2018,06,14,10,44,18.10
2018,06,14,10,45,18.00
2018,06,14,10,46,17.90
2018,06,14,10,47,17.90
2018,06,14,10,48,17.80
2018,06,14,10,49,17.80
2018,06,14,10,50,17.70
2018,06,14,10,51,17.60
2018,06,14,10,52,17.60
2018,06,14,10,53,17.60
2018,06,14,10,54,17.50
2018,06,14,10,55,17.50
2018,06,14,10,56,17.50
2018,06,14,10,57,17.50
2018,06,14,10,58,17.50
2018,06,14,10,59,17.60
2018,06,14,11,00,17.60
2018,06,14,11,01,17.70
2018,06,14,11,02,17.70
2018,06,14,11,03,17.80
2018,06,14,11,04,17.80
2018,06,14,11,05,17.80
2018,06,14,11,06,17.80
2018,06,14,11,07,17.80
2018,06,14,11,08,17.80
2018,06,14,11,09,17.70
2018,06,14,11,10,17.70
2018,06,14,11,11,17.60
2018,06,14,11,12,17.50
2018,06,14,11,13,17.50
2018,06,14,11,14,17.50
2018,06,14,11,15,17.50
2018,06,14,11,16,17.50
2018,06,14,11,17,17.60
2018,06,14,11,18,17.60
2018,06,14,11,19,17.70
2018,06,14,11,20,17.70
2018,06,14,11,21,17.80
2018,06,14,11,22,17.80
2018,06,14,11,23,17.80
2018,06,14,11,24,17.90
2018,06,14,11,25,17.90
2018,06,14,11,26,17.90
2018,06,14,11,27,17.90
2018,06,14,11,28,17.90
2018,06,14,11,29,17.90
2018,06,14,11,30,17.80
2018,06,14,11,31,17.80
2018,06,14,11,32,17.70
2018,06,14,11,33,17.70
2018,06,14,11,34,17.70
2018,06,14,11,35,17.80
2018,06,14,11,36,17.80
2018,06,14,11,37,17.80
2018,06,14,11,38,17.90
2018,06,14,11,39,17.90
2018,06,14,11,40,18.00
2018,06,14,11,41,18.00
2018,06,14,11,42,18.10
2018,06,14,11,43,18.10
2018,06,14,11,44,18.20
2018,06,14,11,45,18.20
2018,06,14,11,46,18.30
2018,06,14,11,47,18.30
2018,06,14,11,48,18.30
2018,06,14,11,49,18.30
2018,06,14,11,50,18.30
2018,06,14,11,51,18.30
2018,06,14,11,52,18.20
2018,06,14,11,53,18.10
2018,06,14,11,54,18.00
2018,06,14,11,55,18.00
2018,06,14,11,56,17.90
2018,06,14,11,57,18.00
2018,06,14,11,58,18.00
2018,06,14,11,59,18.10
2018,06,14,12,00,18.10
2018,06,14,12,01,18.10
2018,06,14,12,02,18.00
2018,06,14,12,03,17.90
2018,06,14,12,04,17.90
2018,06,14,12,05,17.80
2018,06,14,12,06,17.80
2018,06,14,12,07,17.80
2018,06,14,12,08,17.80
2018,06,14,12,09,17.80
2018,06,14,12,10,17.80
2018,06,14,12,11,17.80
2018,06,14,12,12,17.70
2018,06,14,12,13,17.70
2018,06,14,12,14,17.70
2018,06,14,12,15,17.70
2018,06,14,12,16,17.70
2018,06,14,12,17,17.70
2018,06,14,12,18,17.80
2018,06,14,12,19,17.80
2018,06,14,12,20,17.90
2018,06,14,12,21,17.90
2018,06,14,12,22,17.90
2018,06,14,12,23,18.00
2018,06,14,12,24,18.00
2018,06,14,12,25,18.10
2018,06,14,12,26,18.10
2018,06,14,12,27,18.10
2018,06,14,12,28,18.10
2018,06,14,12,29,18.10
2018,06,14,12,30,18.10
2018,06,14,12,31,18.10
2018,06,14,12,32,18.20
2018,06,14,12,33,18.10
2018,06,14,12,34,18.10
2018,06,14,12,35,18.00
2018,06,14,12,36,17.90
2018,06,14,12,37,17.80
2018,06,14,12,38,17.80
2018,06,14,12,39,17.70
2018,06,14,12,40,17.70
2018,06,14,12,41,17.70
2018,06,14,12,42,17.70
2018,06,14,12,43,17.80
2018,06,14,12,44,17.80
2018,06,14,12,45,17.90
2018,06,14,12,46,18.00
2018,06,14,12,47,18.00
2018,06,14,12,48,18.10
2018,06,14,12,49,18.10
2018,06,14,12,50,18.10
2018,06,14,12,51,18.10
2018,06,14,12,52,18.20
2018,06,14,12,53,18.20
2018,06,14,12,54,18.20
2018,06,14,12,55,18.20
2018,06,14,12,56,18.20
2018,06,14,12,57,18.20
2018,06,14,12,58,18.20
2018,06,14,12,59,18.20
2018,06,14,13,00,18.20
2018,06,14,13,01,18.20
2018,06,14,13,02,18.20
2018,06,14,13,03,18.30
2018,06,14,13,04,18.30
2018,06,14,13,05,18.40
2018,06,14,13,06,18.40
2018,06,14,13,07,18.40
2018,06,14,13,08,18.50
2018,06,14,13,09,18.50
2018,06,14,13,10,18.60
2018,06,14,13,11,18.60
2018,06,14,13,12,18.60
2018,06,14,13,13,18.60
2018,06,14,13,14,18.60
2018,06,14,13,15,18.50
2018,06,14,13,16,18.40
2018,06,14,13,17,18.40
2018,06,14,13,18,18.40
2018,06,14,13,19,18.30
2018,06,14,13,20,18.30
2018,06,14,13,21,18.20
2018,06,14,13,22,18.20
2018,06,14,13,23,18.30
2018,06,14,13,24,18.30
2018,06,14,13,25,18.30
2018,06,14,13,26,18.30
2018,06,14,13,27,18.40
2018,06,14,13,28,18.40
2018,06,14,13,29,18.40
2018,06,14,13,30,18.40
2018,06,14,13,31,18.40
2018,06,14,13,32,18.40
2018,06,14,13,33,18.50
2018,06,14,13,34,18.50
2018,06,14,13,35,18.40
2018,06,14,13,36,18.50
2018,06,14,13,37,18.50
2018,06,14,13,38,18.40
2018,06,14,13,39,18.30
2018,06,14,13,40,18.30
2018,06,14,13,41,18.20
2018,06,14,13,42,18.20
2018,06,14,13,43,18.10
2018,06,14,13,44,18.10
2018,06,14,13,45,18.10
2018,06,14,13,46,18.20
2018,06,14,13,47,18.20
2018,06,14,13,48,18.20
2018,06,14,13,49,18.20
2018,06,14,13,50,18.20
2018,06,14,13,51,18.10
2018,06,14,13,52,18.10
2018,06,14,13,53,18.10
2018,06,14,13,54,18.10
2018,06,14,13,55,18.00
2018,06,14,13,56,18.00
2018,06,14,13,57,17.90
2018,06,14,13,58,17.90
2018,06,14,13,59,17.90
2018,06,14,14,00,17.90
2018,06,14,14,01,17.90
2018,06,14,14,02,17.90
2018,06,14,14,03,17.90
2018,06,14,14,04,18.00
2018,06,14,14,05,18.00
2018,06,14,14,06,18.00
2018,06,14,14,07,18.00
2018,06,14,14,08,18.00
2018,06,14,14,09,18.00
2018,06,14,14,10,18.00
2018,06,14,14,11,17.90
2018,06,14,14,12,17.90
2018,06,14,14,13,17.90
2018,06,14,14,14,17.90
2018,06,14,14,15,17.90
2018,06,14,14,16,17.90
2018,06,14,14,17,17.80
2018,06,14,14,18,17.80
2018,06,14,14,19,17.80
2018,06,14,14,20,17.80
2018,06,14,14,21,17.80
2018,06,14,14,22,17.80
2018,06,14,14,23,17.70
2018,06,14,14,24,17.70
2018,06,14,14,25,17.70
2018,06,14,14,26,17.70
2018,06,14,14,27,17.70
2018,06,14,14,28,17.70
2018,06,14,14,29,17.70
2018,06,14,14,30,17.70
2018,06,14,14,31,17.70
2018,06,14,14,32,17.70
2018,06,14,14,33,17.80
2018,06,14,14,34,17.80
2018,06,14,14,35,17.90
2018,06,14,14,36,17.90
2018,06,14,14,37,18.00
2018,06,14,14,38,18.00
2018,06,14,14,39,18.10
2018,06,14,14,40,18.10
2018,06,14,14,41,18.20
2018,06,14,14,42,18.20
2018,06,14,14,43,18.30
2018,06,14,14,44,18.30
2018,06,14,14,45,18.30
2018,06,14,14,46,18.30
2018,06,14,14,47,18.30
2018,06,14,14,48,18.40
2018,06,14,14,49,18.40
2018,06,14,14,50,18.50
2018,06,14,14,51,18.60
2018,06,14,14,52,18.70
2018,06,14,14,53,18.70
2018,06,14,14,54,18.70
2018,06,14,14,55,18.70
2018,06,14,14,56,18.60
2018,06,14,14,57,18.60
2018,06,14,14,58,18.60
2018,06,14,14,59,18.60
2018,06,14,15,00,18.50
2018,06,14,15,01,18.50
2018,06,14,15,02,18.50
2018,06,14,15,03,18.50
2018,06,14,15,04,18.50
2018,06,14,15,05,18.60
2018,06,14,15,06,18.60
2018,06,14,15,07,18.60
2018,06,14,15,08,18.60
2018,06,14,15,09,18.60
2018,06,14,15,10,18.60
2018,06,14,15,11,18.60
2018,06,14,15,12,18.50
2018,06,14,15,13,18.50
2018,06,14,15,14,18.40
2018,06,14,15,15,18.40
2018,06,14,15,16,18.40
2018,06,14,15,17,18.50
2018,06,14,15,18,18.50
2018,06,14,15,19,18.40
2018,06,14,15,20,18.40
2018,06,14,15,21,18.40
2018,06,14,15,22,18.40
2018,06,14,15,23,18.40
2018,06,14,15,24,18.50
2018,06,14,15,25,18.40
2018,06,14,15,26,18.40
2018,06,14,15,27,18.40
2018,06,14,15,28,18.40
2018,06,14,15,29,18.50
2018,06,14,15,30,18.50
2018,06,14,15,31,18.50
2018,06,14,15,32,18.50
2018,06,14,15,33,18.60
2018,06,14,15,34,18.60
2018,06,14,15,35,18.60
2018,06,14,15,36,18.60
2018,06,14,15,37,18.70
2018,06,14,15,38,18.70
2018,06,14,15,39,18.70
2018,06,14,15,40,18.70
2018,06,14,15,41,18.60
2018,06,14,15,42,18.60
2018,06,14,15,43,18.50
2018,06,14,15,44,18.50
2018,06,14,15,45,18.50
2018,06,14,15,46,18.50
2018,06,14,15,47,18.50
2018,06,14,15,48,18.60
2018,06,14,15,49,18.60
2018,06,14,15,50,18.60
2018,06,14,15,51,18.70
2018,06,14,15,52,18.70
2018,06,14,15,53,18.70
2018,06,14,15,54,18.70
2018,06,14,15,55,18.70
2018,06,14,15,56,18.70
2018,06,14,15,57,18.80
2018,06,14,15,58,18.80
2018,06,14,15,59,18.80
2018,06,14,16,00,18.80
2018,06,14,16,01,18.90
2018,06,14,16,02,18.90
2018,06,14,16,03,18.90
2018,06,14,16,04,19.00
2018,06,14,16,05,19.00
2018,06,14,16,06,19.10
2018,06,14,16,07,19.10
2018,06,14,16,08,19.20
2018,06,14,16,09,19.20
2018,06,14,16,10,19.20
2018,06,14,16,11,19.10
2018,06,14,16,12,19.10
2018,06,14,16,13,19.00
2018,06,14,16,14,19.00
2018,06,14,16,15,18.90
2018,06,14,16,16,18.90
2018,06,14,16,17,18.80
2018,06,14,16,18,18.70
2018,06,14,16,19,18.60
2018,06,14,16,20,18.60
2018,06,14,16,21,18.60
2018,06,14,16,22,18.60
2018,06,14,16,23,18.60
2018,06,14,16,24,18.60
2018,06,14,16,25,18.60
2018,06,14,16,26,18.50
2018,06,14,16,27,18.40
2018,06,14,16,28,18.40
2018,06,14,16,29,18.30
2018,06,14,16,30,18.20
2018,06,14,16,31,18.20
2018,06,14,16,32,18.20
2018,06,14,16,33,18.20
2018,06,14,16,34,18.20
2018,06,14,16,35,18.30
2018,06,14,16,36,18.30
2018,06,14,16,37,18.30
2018,06,14,16,38,18.40
2018,06,14,16,39,18.40
2018,06,14,16,40,18.40
2018,06,14,16,41,18.30
2018,06,14,16,42,18.30
2018,06,14,16,43,18.40
2018,06,14,16,44,18.40
2018,06,14,16,45,18.40
2018,06,14,16,46,18.40
2018,06,14,16,47,18.30
2018,06,14,16,48,18.30
2018,06,14,16,49,18.30
2018,06,14,16,50,18.30
2018,06,14,16,51,18.30
2018,06,14,16,52,18.20
2018,06,14,16,53,18.20
2018,06,14,16,54,18.20
2018,06,14,16,55,18.20
2018,06,14,16,56,18.20
2018,06,14,16,57,18.20
2018,06,14,16,58,18.30
2018,06,14,16,59,18.30
2018,06,14,17,00,18.30
2018,06,14,17,01,18.30
2018,06,14,17,02,18.30
2018,06,14,17,03,18.30
2018,06,14,17,04,18.30
2018,06,14,17,05,18.40
2018,06,14,17,06,18.40
2018,06,14,17,07,18.40
2018,06,14,17,08,18.50
2018,06,14,17,09,18.50
2018,06,14,17,10,18.50
2018,06,14,17,11,18.50
2018,06,14,17,12,18.50
2018,06,14,17,13,18.60
2018,06,14,17,14,18.60
2018,06,14,17,15,18.60
2018,06,14,17,16,18.70
2018,06,14,17,17,18.70
2018,06,14,17,18,18.80
2018,06,14,17,19,18.90
2018,06,14,17,20,19.00
2018,06,14,17,21,19.10
2018,06,14,17,22,19.20
2018,06,14,17,23,19.20
2018,06,14,17,24,19.30
2018,06,14,17,25,19.30
2018,06,14,17,26,19.40
2018,06,14,17,27,19.40
2018,06,14,17,28,19.40